Location: Gloden
(48.4833°N, 15.3167°E)
Time: 16:31:06
(UTC+00:00)

Meteor 1-19 Rocket - Pass Details

Date: 15 December 2019
Orbit: 816 x 918 km, 81.2° (Epoch: 24 January)

Event Time Altitude Azimuth Distance (km) Brightness Sun altitude
Exits shadow 03:49:50 40° 1° (N) 1,216 4.9 -27.6°
Maximum altitude 03:51:52 75° 77° (ENE) 878 4.3 -27.2°
Drops below altitude 10° 03:57:32 10° 163° (SSE) 2,495 6.9 -26.3°
Sets 03:59:59 0° 165° (SSE) 3,443 7.6 -25.9°
